Zurück zum Katalog

STARLINK-3854

AktivKommunikationVLEO
NORAD 52648·PAYLOAD·🇺🇸 United States

Gestartet May 14, 2022 von Cape Canaveral Space Force Station

Loading…

Nächste Überflüge (nächste 24 Stunden)

TLE

AktuellSource: CelesTrak SupGP

Epoche: Sep 14, 2026, 20:57 UTC

1 52648C 22052BC  26257.87340278 -.00022087  00000+0 -67030-3 0  2573
2 52648  53.1572 118.2077 0001408  88.6943   8.6923 15.33554851    16

Verfolge STARLINK-3854 in Echtzeit mit AllMySat

Download on the App Store